2021-101D (49393 NORAD) Tracking and Keplerian Element Data

This shows tracking and keplerian element data for the satellite.

Feedback or suggestion? Click here.




ElementValue
Catalog49393
Name2021-101D
Epoch Orbit457
Epoch Day340.14984581
Epoch Year2021
RAAN237.1656
Inclination34.9963
Eccentricity0.0003116
Argument of Perigee249.9573
Mean Anonmoly234.8247
Mean Motion15.23136182
Decay Rate2.103E-05
L11 49393U 21101D 21340.14984581 .00002103 00000+0 88428-4 0 9992
L22 49393 34.9963 237.1656 0003116 249.9573 234.8247 15.23136182 4572

Live tracking and technical data element details for 2021-101D (NORAD 49393). 2021-101D can be tracked NOW for your location showing map with azimuth and elevation plus other details from your city location.

Track the satellite on the map from your city or location and see movement details for azimuth, elevation, latitude, longitude, range, height, and movement on the map or in text.







IsCatalogInMostPopularTable: catalog: 49393, numindb: 7
Update: records affected: 1



GetName: 49393 2021-101D

Hit Count: updated at: Thu, 20 Jan 2022 17:47:22 GMT